User: anonymous   Login
Location: Star Hoppers Observatory
(42.7905°N, 83.6127°W)
Time: 23:02:14
(UTC-05:00)
Language:

NOSS 3-1 (A) - Orbit

View from above orbital plane
View from above orbital plane
View from above satellite
View from above satellite

Ground track
Ground track

The orbit data is extracted from the following two-line orbital elements,

1 26905U 01040A   15054.77447058 0.00000040  00000-0  56292-4 0    09
2 26905  63.4260  28.1743 0294000 357.7092   2.2908 13.40712540    06
Epoch (UTC): 23 February 2015 18:35:14
Eccentricity: 0.0294000
inclination: 63.4260°
perigee height: 886 km
apogee height: 1326 km
right ascension of ascending node: 28.1743°
argument of perigee: 357.7092°
revolutions per day: 13.40712540
mean anomaly at epoch: 2.2908°
orbit number at epoch: 0

The dashed part of the orbit path shows where the satellite is in the earth's shadow,  

DLR